sat.trackr.live / text

‹ back to catalog

UNKNOWN

NORAD 87843

UNKNOWN UNKNOWN UNKNOWN

§ Identity

Operator
Country
Launch date
Launch site
Launch vehicle
Mass (kg)
RCS (m²)

External: N2YO · Heavens-Above

§ Orbital elements

Epoch: 2026-09-17T13:09:57.443328Z

Period
109.30 min
Inclination
99.6570°
Eccentricity
0.0235215
Mean motion
13.17468830 rev/d
Perigee alt
1,016.3 km
Apogee alt
1,372.5 km
Semi-major
7,572.5 km
B*
9.4448e-4
RAAN
356.3521°
Arg perigee
72.0541°
Mean anomaly
290.6066°
Rev number
60,086

§ Raw data

UNKNOWN1 87843U          26260.54858152  .00000384  00000+0  94448-3 0  99902 87843  99.6570 356.3521 0235215  72.0541 290.6066 13.17468830600860

JSON: /api/v1/satellites/87843 · /tle

For live sub-satellite position, see the globe view (requires WebGL).

§ Visibility from observer

Set your observer location to see the next 7 days of passes ≥ 10°. The values pass through the URL so the page stays shareable.

No JS? Fill the form by hand. The geolocation button needs JavaScript.